ECMWFNIL_700_spd_096.txt.gz
Wind_Speed
9 9 10 11 13 13 13 14 15 16 16 17 18 19 19 18 17 16 16 15 15 15 15 15 15 16 16 17 17 18 18 18 18 19 19 19 18 19 20 22 22 23
10 10 11 12 13 13 14 15 16 16 16 17 17 17 17 16 15 14 13 13 13 13 13 14 14 15 15 16 17 17 17 17 17 18 18 18 18 19 20 22 22 23
12 12 12 13 14 16 16 17 17 18 18 18 17 16 15 13 12 11 11 11 11 11 12 13 14 15 15 16 16 17 17 16 17 17 18 18 18 19 20 21 22 23
13 13 13 14 16 17 18 18 18 18 17 16 15 13 12 11 10 9 9 10 10 11 12 13 14 15 15 16 16 16 16 16 16 17 18 18 18 19 20 21 22 23
14 14 15 16 17 18 18 18 18 17 16 14 12 11 10 9 8 8 9 9 10 11 12 13 14 15 15 15 15 15 15 15 16 17 18 18 18 19 20 21 22 23
14 16 17 18 19 19 18 17 16 15 14 12 10 9 9 8 7 8 8 9 11 12 13 14 14 14 14 14 14 14 15 15 16 17 18 18 18 19 20 21 23 24
15 17 18 20 20 19 18 17 16 14 12 10 9 8 8 7 7 8 9 10 11 12 13 13 13 13 13 13 14 14 15 16 16 17 18 18 18 19 20 22 23 25
16 17 19 20 20 19 18 16 14 12 11 9 8 8 8 7 8 9 10 11 11 12 12 12 12 12 12 13 14 15 16 17 17 17 17 17 18 19 20 22 23 25
17 17 18 19 18 17 16 15 13 11 9 8 8 8 8 8 9 9 10 10 11 11 11 11 11 12 13 14 15 16 17 17 16 16 17 18 19 20 20 22 24 25
19 18 17 17 16 16 15 13 12 10 8 7 8 8 9 9 9 10 10 10 10 10 10 11 11 12 13 14 15 16 16 17 16 16 17 18 20 21 21 22 24 26
20 18 17 16 15 15 14 13 12 10 8 8 9 9 10 10 9 9 9 9 10 10 10 10 11 13 14 15 16 16 16 17 17 16 17 18 20 22 22 23 24 25
19 17 16 15 14 14 14 13 12 10 9 9 9 10 10 10 9 9 9 9 9 10 10 11 12 13 14 15 16 16 16 16 17 17 17 18 20 22 23 23 24 25
19 17 15 14 13 14 14 13 12 11 10 10 10 10 11 10 9 9 9 9 9 9 10 11 13 14 14 15 15 15 15 16 17 17 18 18 20 22 23 24 25 26
17 17 16 14 13 14 14 14 13 12 10 10 10 11 11 10 9 9 9 9 9 9 11 12 13 14 14 15 15 15 15 16 17 18 18 19 20 22 23 24 25 26
16 16 15 14 14 14 15 15 14 12 10 10 11 12 11 10 9 9 8 8 9 10 11 12 13 13 14 14 14 14 15 15 17 18 18 19 20 22 23 24 25 26
15 15 16 16 15 15 15 15 14 11 10 11 12 12 11 10 9 9 8 8 9 10 11 12 12 13 13 13 13 14 14 15 16 17 19 19 20 22 23 24 25 26
17 17 18 17 17 16 16 15 14 12 11 12 13 12 11 10 9 8 8 8 9 10 11 11 12 12 12 12 13 13 14 15 16 17 18 19 20 21 22 23 24 26
18 18 18 18 17 16 16 15 14 12 12 13 13 12 11 10 9 8 8 8 9 10 10 11 10 11 11 11 12 13 14 15 16 17 18 19 20 21 22 23 24 25
16 17 18 18 17 16 16 16 14 13 13 13 13 12 12 11 9 8 8 8 9 9 9 9 9 10 10 11 11 12 13 15 16 17 17 18 20 21 22 23 24 25
15 17 18 18 17 16 16 16 14 13 13 14 13 13 12 10 9 8 8 8 8 8 8 8 9 9 9 10 11 12 13 14 15 16 17 18 19 20 22 23 24 25
16 17 18 18 17 16 16 15 14 14 14 14 14 13 11 10 9 8 7 7 8 8 8 8 8 8 9 10 11 12 13 14 15 16 16 17 19 20 21 23 24 25
16 17 17 17 17 16 16 15 15 14 14 14 14 12 11 10 8 7 7 7 7 7 7 7 7 7 8 9 10 11 12 13 14 15 16 17 18 20 22 23 24 25
17 17 17 17 17 16 16 15 15 15 15 14 13 12 11 9 7 7 7 6 6 6 6 6 6 7 8 9 10 10 11 12 13 14 16 17 18 20 22 23 23 25
18 17 17 17 16 16 16 16 16 15 15 14 13 12 10 8 7 7 6 6 5 5 5 5 5 6 7 8 9 9 10 11 12 14 15 17 19 20 21 22 23 25
18 18 18 17 16 16 16 16 16 16 15 14 13 11 9 7 7 6 5 5 5 5 5 4 5 5 6 6 7 8 9 10 12 13 15 17 19 20 21 22 24 25
18 18 17 17 16 17 17 17 17 16 15 14 12 10 8 7 6 5 4 4 5 4 4 3 4 4 4 5 6 7 8 9 11 12 14 16 17 19 20 22 23 24

ECMWFNIL_700_spd_102.txt.gz
Wind_Speed
14 13 12 12 12 12 11 11 10 10 11 12 12 12 13 14 15 16 17 18 19 19 17 16 15 14 13 13 13 13 14 15 17 18 19 20 21 22 22 23 25 25
14 13 13 12 12 11 10 9 9 9 9 10 11 12 13 14 15 17 17 18 17 16 15 14 12 12 12 12 13 14 15 17 18 19 20 21 21 22 23 24 25 25
14 13 13 12 11 11 9 8 8 9 10 11 12 13 14 15 16 17 17 17 16 15 13 11 10 11 11 13 14 15 17 18 19 19 20 20 21 22 24 24 25 24
14 13 12 11 11 10 9 9 9 9 11 12 13 14 15 16 16 16 16 15 14 13 11 10 10 11 12 13 15 16 18 19 19 19 20 20 22 23 23 23 23 23
14 13 12 11 10 9 9 9 9 10 12 13 14 15 15 16 16 15 15 14 13 12 10 10 10 11 12 14 16 17 18 19 19 19 20 21 22 22 22 22 22 21
14 14 12 11 9 9 9 9 10 12 13 14 15 15 16 16 16 15 14 13 12 12 11 10 11 11 13 15 16 17 18 18 19 19 20 21 21 21 21 20 20 20
14 14 13 11 10 9 8 9 11 12 14 15 16 16 16 16 15 15 14 13 12 12 11 11 11 12 14 15 16 17 18 18 19 19 20 21 21 20 19 19 19 20
15 15 14 12 10 8 8 10 12 13 15 16 17 17 17 16 16 15 14 13 13 12 12 12 12 13 14 15 16 17 17 18 19 20 20 20 19 18 18 18 18 20
16 16 15 12 10 9 10 12 13 14 16 17 18 19 18 17 16 15 14 14 13 13 13 13 13 14 14 15 16 16 17 18 19 19 19 18 18 17 17 18 19 20
18 17 15 13 12 12 13 14 15 15 16 18 19 20 19 18 17 15 15 14 14 13 13 14 14 14 15 15 15 16 17 18 19 19 18 17 16 16 16 17 19 20
19 18 16 15 14 14 15 15 16 16 17 18 20 20 19 18 17 16 15 14 14 14 14 14 14 14 14 14 15 16 17 18 18 17 16 15 15 15 16 17 18 19
19 18 18 16 15 15 16 15 15 16 18 19 20 20 19 19 18 16 15 15 14 14 15 15 15 14 13 14 15 16 17 18 17 16 15 14 14 15 16 17 18 19
19 20 19 19 18 18 17 16 15 16 18 19 19 19 19 18 18 17 16 15 15 15 15 15 14 13 13 14 15 16 17 16 15 14 13 13 14 15 15 17 17 18
21 21 21 22 21 20 18 16 16 16 18 19 19 19 19 18 18 17 16 15 15 15 15 14 14 13 13 13 15 16 16 15 14 13 12 13 13 14 15 16 16 17
22 23 23 23 22 21 19 17 15 15 18 20 20 20 19 19 18 17 16 16 15 15 14 14 13 13 13 13 14 14 14 14 13 12 12 12 13 13 14 15 15 16
24 24 24 23 23 22 21 17 14 16 18 20 20 20 20 19 18 17 16 16 15 15 14 14 13 12 12 13 13 13 13 13 12 11 11 12 12 12 13 14 15 15
25 25 27 26 25 24 22 18 15 16 18 18 19 20 20 19 18 16 16 15 15 14 14 14 13 12 12 12 12 12 12 12 11 11 11 11 11 12 13 13 14 14
26 28 29 28 29 27 22 17 15 17 18 19 20 20 20 19 17 16 16 15 15 14 14 13 12 12 12 12 12 11 11 11 11 11 11 11 11 11 12 13 14 14
28 28 29 30 29 23 17 15 17 19 19 19 19 20 20 18 17 16 16 15 15 14 13 13 12 11 11 11 11 10 10 10 10 11 11 10 11 11 12 13 13 14
29 28 28 28 23 16 14 16 18 18 18 18 20 20 19 18 17 17 16 15 14 14 13 12 11 11 11 11 10 9 9 10 10 10 10 10 10 11 11 12 12 13
28 26 25 24 18 14 16 18 17 17 17 19 20 20 19 18 18 17 16 15 14 13 12 12 11 10 10 10 9 9 9 9 10 10 9 9 10 10 11 11 12 13
24 22 24 24 18 16 18 18 16 16 17 18 20 19 19 19 18 16 15 14 14 13 12 11 10 10 9 9 8 8 9 9 9 9 8 9 9 9 10 10 11 12
21 21 25 23 17 17 19 18 17 17 16 17 19 19 19 19 18 16 15 14 13 13 11 10 9 9 8 8 8 9 9 8 8 7 8 8 8 9 9 9 11 12
22 24 25 22 19 19 19 18 18 17 17 18 19 20 20 19 18 16 15 14 13 12 10 9 9 8 8 8 9 8 8 8 7 7 7 7 8 8 8 9 10 12
25 26 23 21 21 20 19 20 19 18 18 19 20 21 20 19 18 17 15 14 12 11 10 9 8 8 8 8 9 8 7 7 6 6 6 6 7 7 8 9 10 12
26 24 21 21 21 20 21 22 20 19 20 21 21 21 20 19 18 16 15 14 12 10 9 9 8 8 8 9 8 7 6 6 6 6 6 5 6 7 8 9 11 13

ECMWFNIL_700_spd_105.txt.gz
Wind_Speed
17 17 16 15 14 13 12 12 11 10 10 11 11 10 10 11 11 11 11 12 13 14 14 15 15 14 13 13 12 11 10 10 11 13 14 15 16 17 18 19 20 21
17 17 16 15 14 13 12 12 11 10 10 9 9 8 9 9 9 10 10 11 12 13 14 14 14 13 13 12 11 10 10 11 12 14 15 16 17 18 19 20 21 22
18 18 17 16 15 13 13 12 11 10 9 8 8 8 8 9 9 10 10 11 12 13 13 14 13 13 12 11 11 11 11 12 13 15 16 17 18 19 20 21 22 22
19 18 17 16 15 14 13 12 11 10 9 9 9 9 9 9 10 10 11 12 12 13 13 13 13 12 12 11 11 11 12 13 14 15 17 18 18 19 20 21 21 20
20 18 18 16 15 14 13 12 12 11 10 9 9 9 10 10 11 11 11 12 13 13 14 13 13 12 11 11 12 12 13 14 15 16 17 18 19 20 21 21 20 19
19 18 18 17 16 14 13 13 12 11 10 9 9 10 11 11 12 12 12 13 14 14 14 13 12 12 12 12 12 13 14 15 15 16 17 18 19 20 21 20 19 18
19 18 18 17 16 14 13 13 12 11 10 9 10 11 12 12 13 13 13 14 14 14 14 13 12 12 12 12 13 14 14 15 15 16 17 18 19 20 20 19 18 17
18 18 18 17 16 15 13 13 12 11 10 10 12 13 13 14 14 14 14 14 14 14 14 13 13 13 13 13 13 14 15 15 15 16 17 18 19 19 19 17 17 17
17 18 18 17 17 15 14 14 14 12 12 12 14 14 14 14 14 14 14 14 14 14 14 14 14 14 13 14 14 15 15 15 15 15 16 17 18 18 17 16 16 16
19 18 19 18 17 16 16 16 16 14 13 14 15 14 14 14 15 15 15 15 15 15 15 15 15 14 14 14 14 15 14 14 14 15 15 16 17 16 15 15 15 16
20 20 20 19 18 17 18 18 18 16 15 15 15 14 13 14 15 16 16 16 16 16 16 16 15 14 14 14 14 14 14 14 14 14 15 15 15 14 14 14 15 15
22 22 21 20 19 19 19 20 19 17 16 16 15 14 13 14 15 16 17 17 17 16 16 16 15 14 13 14 14 14 14 13 13 14 14 13 13 13 13 13 14 15
24 24 23 22 21 21 21 22 21 19 18 17 16 14 14 14 15 17 17 18 17 17 17 16 15 14 13 13 13 13 13 13 13 13 13 12 12 12 12 13 14 14
24 24 24 22 22 23 23 23 22 20 19 18 16 15 15 15 16 17 18 18 18 17 17 15 14 13 13 12 12 12 12 12 12 12 12 11 11 11 12 12 13 13
24 24 23 23 23 24 24 24 23 21 20 19 17 16 15 15 16 17 18 18 18 18 16 15 14 13 12 12 11 11 12 12 12 11 10 10 10 11 11 11 12 12
25 24 24 24 24 24 25 26 26 24 21 20 18 16 14 14 15 17 18 18 18 17 16 14 13 13 12 11 11 11 11 11 10 10 10 9 9 10 10 10 11 12
26 26 26 25 24 25 26 27 28 26 23 21 18 15 13 12 14 16 18 19 19 17 16 14 13 12 12 11 10 11 11 10 9 9 9 9 9 9 9 10 10 11
27 27 27 26 26 26 26 28 30 29 27 24 18 15 14 13 14 16 18 19 19 17 16 14 13 12 11 10 10 10 10 9 9 8 8 8 8 8 8 9 9 9
30 29 29 28 28 28 28 30 31 30 27 23 17 14 14 13 13 17 19 19 19 17 16 14 13 12 11 10 10 10 10 9 8 8 8 7 7 7 8 8 9 9
32 31 30 29 29 29 29 30 30 26 21 19 16 15 14 13 14 18 20 20 19 17 16 14 13 12 10 10 10 10 9 8 8 7 7 7 7 7 7 8 8 8
32 31 29 28 29 29 30 31 29 20 16 16 16 15 14 13 16 19 19 19 18 17 15 14 13 11 10 10 10 9 9 8 8 7 7 6 6 7 7 7 7 8
30 29 28 28 29 28 28 28 23 17 15 15 15 15 14 14 16 18 19 18 18 17 15 14 13 11 11 10 9 9 9 8 7 7 6 6 6 6 6 7 7 8
29 27 27 26 25 24 25 23 18 17 16 16 16 16 15 15 16 18 19 18 17 17 16 14 13 12 11 9 8 8 9 8 7 6 6 6 6 6 6 7 7 8
29 26 24 24 21 20 23 23 18 17 17 17 17 17 16 16 17 18 18 18 17 17 15 14 12 11 10 9 9 10 9 8 7 6 6 5 5 5 6 7 8 9
29 25 23 23 21 20 23 23 19 18 18 18 18 17 16 17 17 17 18 18 17 17 15 14 12 11 11 11 11 10 9 8 7 6 5 5 5 5 6 7 8 10
26 25 24 23 21 21 23 23 20 19 19 18 18 17 16 17 17 17 18 18 18 17 16 14 12 12 12 12 11 10 9 8 7 6 6 6 5 5 6 7 9 10

ECMWFNIL_700_spd_111.txt.gz
Wind_Speed
23 22 21 20 19 19 19 19 18 16 17 18 17 17 16 15 16 16 17 17 17 17 16 16 16 17 17 17 16 16 16 15 14 14 15 15 15 15 15 15 14 13
22 21 20 20 19 19 19 18 17 16 17 18 18 17 16 15 15 15 16 16 16 16 16 16 16 16 16 16 16 15 15 14 14 15 15 15 16 16 15 14 14 13
20 19 18 19 19 19 19 18 17 17 18 18 18 17 16 15 15 15 15 15 15 15 16 15 15 15 15 15 15 15 14 14 15 15 15 16 16 16 14 14 13 13
20 18 18 19 20 19 19 18 18 18 19 19 19 18 16 15 14 14 15 15 15 15 15 15 15 15 15 15 15 14 14 15 15 16 16 17 16 15 14 13 13 13
21 20 20 20 20 20 19 19 19 19 19 20 19 17 16 15 15 15 15 15 15 15 15 15 15 15 15 15 14 14 15 15 16 17 17 17 15 14 13 13 13 13
23 21 21 21 20 20 20 20 20 20 20 20 19 18 17 16 16 16 15 15 15 14 14 15 15 15 15 15 15 15 16 16 17 17 17 16 15 14 13 13 13 13
23 22 22 21 21 21 21 20 21 21 21 20 19 19 18 17 17 16 15 15 14 14 14 15 15 15 15 15 15 16 17 17 17 17 17 16 15 13 13 13 13 13
24 23 23 22 22 22 21 21 21 21 21 21 20 19 19 19 18 17 16 15 15 15 14 15 15 15 15 15 16 16 17 17 17 17 17 15 14 13 13 14 13 12
25 24 23 23 23 22 22 22 21 22 22 22 21 20 20 20 19 18 18 17 16 15 15 15 15 14 14 15 16 16 17 17 17 17 16 14 14 13 13 14 13 12
26 25 24 24 24 23 22 22 22 23 23 22 22 22 21 21 20 20 19 17 16 15 15 14 14 14 14 15 16 17 17 17 17 16 15 14 14 14 14 14 13 12
27 26 26 25 24 24 23 23 23 24 24 24 23 23 23 22 22 21 19 17 16 15 14 14 14 14 15 15 16 17 17 17 16 15 14 14 14 14 14 14 13 12
27 27 27 26 25 24 24 24 25 25 25 25 25 24 24 23 23 21 20 18 17 15 14 14 14 15 15 16 16 17 17 16 15 15 14 14 14 14 14 14 12 11
28 28 27 27 26 24 24 25 26 26 26 26 26 26 25 24 24 23 21 20 17 16 15 14 14 14 15 15 16 17 16 16 15 15 14 15 15 15 15 14 12 10
29 28 28 28 26 25 25 26 27 27 27 27 27 27 26 26 25 25 23 21 20 18 16 15 14 13 14 15 15 16 15 15 15 15 15 15 15 15 15 13 11 10
29 29 30 29 27 26 27 27 28 27 26 27 27 28 27 27 27 27 26 25 24 22 20 17 13 11 12 14 15 15 15 14 14 15 15 15 15 15 14 12 11 10
30 30 30 29 29 29 28 28 28 27 26 27 28 28 28 28 29 29 29 28 25 22 21 17 12 9 11 13 14 15 15 14 14 14 15 15 14 14 13 11 10 9
31 31 30 30 30 30 29 29 28 27 27 27 27 28 28 29 30 29 25 22 20 19 20 18 14 12 11 12 13 15 14 14 14 14 15 14 13 13 12 10 9 8
31 30 30 31 31 30 29 29 27 25 25 25 25 26 28 28 28 26 21 18 18 21 21 19 18 15 11 11 13 14 14 14 14 15 15 14 13 12 10 9 9 10
30 31 31 31 31 29 29 29 27 25 23 23 25 26 25 23 22 21 20 20 20 20 19 18 17 14 11 12 13 14 14 15 15 15 14 13 12 11 10 10 11 13
31 32 32 32 31 29 29 29 28 27 25 23 23 23 21 20 19 20 21 21 18 16 16 15 15 13 11 12 14 14 15 15 15 14 13 12 12 11 10 11 12 12
31 32 32 32 31 30 30 29 29 28 26 24 23 23 23 22 21 21 22 21 17 15 15 14 13 13 13 14 15 15 15 15 15 14 13 12 11 11 12 12 11 11
30 31 31 32 31 31 31 30 29 28 26 25 25 25 24 22 20 20 20 19 17 16 16 15 14 14 14 15 15 15 15 15 14 14 13 12 12 12 12 12 11 10
30 30 31 31 31 32 32 30 29 28 26 27 26 24 22 21 19 19 19 18 18 19 18 17 15 15 15 15 15 15 14 15 15 14 13 13 13 13 12 11 11 10
30 30 31 32 32 33 32 30 29 28 27 26 25 23 21 20 18 18 19 18 20 21 20 18 16 15 15 14 15 15 15 15 15 15 14 14 14 13 13 12 11 9
30 30 31 31 32 32 30 29 29 28 27 26 24 23 21 20 19 19 19 20 22 22 20 19 17 15 15 15 15 15 15 16 16 16 16 16 15 14 13 11 10 9
29 30 30 30 30 29 28 28 28 28 28 27 25 24 23 23 23 21 19 21 23 22 20 19 17 16 15 15 15 16 16 17 17 17 17 16 15 14 13 12 11 10

ECMWFNIL_700_spd_114.txt.gz
Wind_Speed
23 21 21 21 21 21 20 18 17 17 17 17 17 16 16 16 17 17 17 17 18 18 18 19 19 19 19 19 19 19 19 19 19 18 18 17 17 17 16 16 16 17
22 21 22 22 22 21 20 18 18 18 18 17 16 16 17 16 16 17 17 17 17 18 18 18 19 19 19 19 18 18 18 18 18 17 17 17 17 17 17 17 17 17
23 22 22 21 21 20 19 19 19 18 18 17 16 17 17 16 16 16 16 16 17 17 17 17 18 18 18 18 18 18 18 17 17 17 17 17 17 17 17 17 17 18
24 23 22 21 20 20 20 19 19 19 18 17 17 18 18 17 16 17 17 16 16 16 16 17 17 18 18 17 17 17 17 17 17 17 17 17 17 17 18 17 18 18
24 24 22 20 19 20 20 19 19 19 17 17 19 19 19 18 18 18 17 16 16 15 16 17 18 18 17 16 16 16 16 17 17 17 17 17 18 18 18 18 18 18
25 24 22 20 20 19 18 19 19 19 18 19 21 20 20 19 19 18 18 17 16 16 17 18 17 16 15 15 16 16 16 17 17 17 17 18 18 18 18 18 18 17
25 24 22 21 20 18 19 20 20 20 19 20 22 21 20 20 19 19 18 18 17 18 18 17 16 15 15 15 16 16 16 16 17 18 18 18 18 18 18 18 17 16
26 24 22 21 20 19 20 21 21 21 20 21 22 22 21 20 20 20 19 19 18 19 18 17 16 15 15 15 15 15 16 17 18 18 18 18 18 18 18 17 17 16
26 25 23 22 22 21 21 21 21 21 21 22 23 23 22 21 20 20 20 20 20 20 19 18 16 15 15 15 14 15 16 17 17 18 18 18 18 18 18 17 17 16
27 25 24 23 23 23 22 21 22 21 22 23 23 23 22 21 20 21 21 21 21 21 20 18 17 16 15 15 14 15 16 16 17 17 18 18 17 17 17 17 16 15
28 26 24 23 23 23 22 22 22 22 23 23 23 23 22 21 21 22 22 22 22 22 21 20 19 17 16 15 15 15 15 15 16 17 17 17 17 17 17 16 15 15
28 26 24 24 23 23 23 22 22 23 23 23 23 23 21 21 22 23 23 24 23 23 23 22 20 19 18 16 15 14 14 15 15 16 17 17 17 16 15 15 14 14
28 26 25 24 23 23 23 23 23 24 24 23 23 23 22 22 23 24 24 24 24 24 24 23 23 23 20 17 16 15 14 14 14 15 17 17 16 15 15 14 14 13
29 27 25 24 24 24 24 24 24 24 24 23 23 23 22 22 23 24 24 25 25 26 26 25 25 25 22 19 20 19 17 16 14 14 16 16 15 15 14 14 13 13
30 27 25 25 25 25 25 25 25 24 24 23 23 23 23 23 23 23 24 26 26 26 26 25 24 23 21 19 19 18 18 17 14 13 14 15 14 15 14 14 13 13
29 26 26 26 25 25 25 25 25 25 24 23 23 23 23 23 22 22 24 25 26 26 27 25 22 20 19 16 15 16 18 17 13 12 14 14 14 14 14 13 13 12
28 27 27 26 25 25 26 26 26 26 24 22 23 23 23 23 22 23 25 26 27 27 23 18 17 18 18 16 15 16 17 15 13 12 14 14 14 14 14 13 13 12
28 27 27 26 24 25 26 26 27 26 24 23 23 22 23 24 23 24 25 26 27 25 17 13 13 15 16 16 15 15 16 15 13 13 14 14 14 15 14 13 13 12
28 28 28 25 24 25 26 27 27 26 24 23 23 23 24 24 23 24 24 23 23 21 17 15 14 14 15 15 14 14 14 14 13 13 14 14 15 15 14 13 12 12
30 29 27 24 24 25 26 26 26 26 25 24 24 25 25 24 23 23 23 22 20 20 20 19 15 14 14 13 13 13 13 13 13 13 13 14 14 14 13 13 13 12
30 29 26 25 25 25 25 26 28 28 27 26 25 26 26 26 26 24 23 21 21 20 21 19 16 16 15 14 14 13 13 13 13 13 14 14 14 14 14 13 13 13
30 28 26 25 25 24 25 27 28 28 28 27 27 27 27 26 26 25 23 22 22 22 21 18 16 17 16 15 15 14 13 13 13 13 14 14 14 14 14 13 13 14
30 27 26 25 24 23 25 27 28 28 28 28 27 26 26 25 24 24 24 24 23 22 20 16 15 18 17 16 16 15 13 13 14 14 15 14 14 15 14 13 14 14
28 26 25 25 24 25 26 28 28 28 28 29 27 25 24 24 23 24 26 27 24 21 20 17 17 20 19 18 17 15 14 14 15 15 15 14 14 15 14 14 14 14
26 25 26 26 26 27 28 29 29 28 28 29 28 25 25 26 26 26 28 28 24 23 22 19 18 21 21 19 18 16 15 16 16 15 15 14 14 15 14 15 15 14
26 26 27 27 28 28 29 29 29 28 27 28 28 26 26 27 27 27 29 27 25 25 24 19 18 21 22 21 21 18 17 17 16 15 15 15 14 15 15 15 15 14

ECMWFNIL_700_spd_117.txt.gz
Wind_Speed
20 20 20 19 19 20 20 20 19 18 16 15 15 15 16 16 15 14 13 13 14 15 16 16 16 16 16 16 17 17 17 17 17 17 17 17 17 17 16 16 16 17
19 19 20 19 20 21 20 19 19 17 16 16 15 16 16 16 16 14 13 13 14 16 17 17 16 16 16 17 17 17 17 16 17 17 17 17 17 16 16 16 17 17
19 19 19 19 20 20 19 19 18 18 17 16 16 16 16 16 15 14 14 14 15 16 17 16 16 16 16 16 16 16 16 16 17 17 16 16 16 16 16 17 17 18
19 19 19 20 20 20 19 18 18 19 18 17 16 16 16 16 15 15 14 14 15 16 16 15 15 15 15 15 15 16 16 17 17 16 16 16 16 16 16 17 18 18
20 20 20 21 21 20 20 19 19 19 18 17 17 17 18 17 16 15 14 15 15 16 16 15 15 15 14 15 16 17 17 17 16 16 16 16 16 16 17 17 18 18
21 21 21 22 22 20 20 19 19 19 18 18 18 19 19 17 16 16 15 16 16 16 16 16 15 15 15 15 16 16 16 16 15 15 16 16 16 16 17 17 18 18
21 21 22 23 22 21 20 20 19 18 18 19 20 19 19 18 17 16 16 17 17 17 17 16 15 15 15 16 16 16 16 16 15 15 15 16 16 16 17 17 18 18
21 22 23 23 23 21 20 20 19 18 19 20 21 20 19 18 18 17 17 17 17 17 17 17 16 16 16 16 16 16 17 16 16 16 16 16 17 17 17 17 17 17
22 23 23 24 23 22 21 20 19 19 20 21 21 20 20 19 18 17 17 18 18 18 18 18 17 17 17 17 18 18 18 18 17 18 17 17 17 16 16 16 16 17
23 24 24 24 24 23 22 20 19 20 21 22 21 21 20 19 18 18 18 18 18 18 19 19 19 19 19 19 19 20 20 19 19 19 18 18 17 16 15 15 16 16
24 24 24 25 24 23 22 21 21 21 21 22 22 21 20 19 19 18 18 19 18 18 19 19 20 19 19 19 20 21 21 21 21 21 20 19 18 17 15 15 15 16
25 25 25 26 26 24 23 22 22 21 21 22 22 22 21 20 19 19 19 19 18 18 18 19 19 19 19 20 21 21 21 22 23 24 23 23 21 19 16 15 15 15
25 25 26 27 27 25 24 23 22 21 21 22 22 22 21 20 20 20 19 18 18 17 17 17 18 18 18 20 21 21 22 24 25 24 24 24 22 19 17 15 15 14
26 26 27 28 27 26 25 24 23 21 21 21 21 21 21 20 20 20 19 18 17 16 16 16 17 18 19 21 21 22 25 27 25 22 21 20 20 18 16 14 14 14
27 27 28 28 28 27 27 25 23 22 22 21 21 21 20 20 21 20 19 17 15 15 15 16 18 19 21 22 23 24 25 24 21 18 17 18 17 16 15 13 14 14
28 29 29 28 28 29 28 25 24 23 22 21 21 20 20 20 20 19 18 17 16 16 17 18 19 20 22 22 22 23 22 19 17 16 16 16 15 15 13 13 13 13
29 29 28 28 29 30 28 26 24 23 22 21 20 19 19 20 19 19 19 18 17 17 18 19 19 21 22 20 19 20 19 17 16 15 16 15 14 13 13 12 12 12
30 29 27 29 30 30 28 26 24 23 21 20 19 18 19 19 20 20 20 19 18 18 20 20 19 19 19 17 17 19 18 17 16 14 15 14 13 13 12 11 11 12
30 29 28 30 30 29 28 27 24 22 21 19 18 18 18 20 21 21 20 19 19 19 20 19 18 17 17 16 18 18 18 17 15 14 14 13 12 12 12 10 10 12
29 29 29 30 30 30 29 26 23 21 19 18 18 17 19 21 22 21 20 20 19 20 20 19 18 18 17 17 17 18 18 17 15 13 13 13 12 12 11 10 11 12
29 28 29 30 30 30 29 26 23 21 19 18 18 18 20 21 22 21 21 21 21 20 20 19 20 20 18 18 18 18 18 17 15 13 14 14 13 12 11 12 12 12
28 28 29 30 31 31 28 25 23 20 18 18 19 20 21 22 22 22 22 23 22 21 20 20 21 20 18 19 19 19 19 18 15 15 15 15 13 12 12 13 12 11
26 26 28 31 32 30 27 24 21 19 18 18 20 21 22 22 23 23 23 23 23 22 21 21 21 20 19 20 21 20 20 19 17 16 16 15 13 13 13 12 12 12
24 25 29 32 31 29 26 23 21 19 19 20 21 22 22 22 23 23 23 23 22 22 22 21 21 21 20 21 22 22 21 21 19 18 18 15 13 13 13 12 12 12
24 26 29 31 29 27 25 23 21 21 21 22 22 23 22 23 23 23 23 23 23 23 22 21 22 23 22 23 24 23 22 22 21 20 19 15 13 13 12 12 12 12
24 25 28 29 27 25 23 23 23 23 23 23 23 23 23 23 23 22 22 23 23 23 20 19 20 23 25 26 25 22 22 23 21 20 18 15 12 12 11 11 12 13

ECMWFNIL_700_spd_123.txt.gz
Wind_Speed
25 23 21 22 22 21 20 19 18 17 17 17 17 16 15 15 14 14 15 16 17 17 18 18 17 16 16 16 16 16 16 16 17 17 17 17 17 17 17 17 17 18
26 24 23 23 22 21 20 19 18 17 18 19 18 16 16 15 14 14 15 16 17 18 18 17 17 16 16 16 16 16 17 17 17 17 17 17 16 16 16 17 17 18
26 26 23 23 22 21 20 19 19 18 18 19 18 16 16 15 14 13 15 16 17 18 18 17 16 16 16 16 16 17 17 17 17 16 16 15 15 16 16 17 17 18
27 27 24 23 23 21 20 21 20 19 19 19 17 15 15 14 13 13 14 16 17 18 17 16 16 16 16 16 17 17 16 15 14 15 15 14 15 15 16 17 17 18
28 27 25 25 24 22 21 22 21 20 20 19 16 15 15 14 13 14 15 16 17 17 17 16 15 16 16 16 16 15 14 13 13 14 14 14 14 15 16 17 18 18
30 29 27 26 25 23 22 22 20 20 20 18 16 15 14 14 14 14 16 17 17 17 17 15 15 16 16 16 15 13 13 13 14 14 14 14 14 15 17 18 18 18
31 29 28 27 26 24 23 22 20 19 19 17 16 15 15 15 14 15 17 18 17 17 16 15 15 16 16 15 15 14 13 14 14 14 13 14 15 16 17 18 19 18
32 30 29 28 27 25 24 23 20 19 18 17 16 15 15 15 15 16 18 18 18 17 16 15 15 16 16 15 15 14 15 15 14 14 14 15 16 16 17 18 18 18
33 32 30 29 27 25 25 23 21 19 18 17 16 16 16 15 15 17 18 18 18 17 16 16 16 16 15 15 15 16 16 16 15 14 14 16 16 17 18 18 18 17
35 33 31 31 28 26 25 23 21 19 18 17 17 17 17 16 16 17 18 18 18 18 17 17 16 16 16 16 16 16 17 16 15 15 15 16 16 17 18 18 18 17
35 33 32 31 29 27 26 24 22 20 18 18 18 19 18 16 16 16 17 18 18 19 18 17 17 17 16 16 17 17 17 16 16 15 16 16 17 18 19 18 17 18
36 34 33 32 29 27 26 24 23 21 19 19 19 20 19 17 16 17 17 18 19 19 19 18 18 17 17 17 17 17 17 16 16 16 16 17 18 19 19 18 18 19
36 34 34 33 30 27 26 24 24 22 20 20 20 21 20 18 17 18 18 19 20 20 19 19 19 18 17 17 17 17 16 16 17 17 18 18 19 20 20 19 19 19
36 34 35 34 30 28 26 25 25 22 21 21 21 22 22 20 19 19 20 20 20 20 20 19 19 18 17 17 17 17 17 17 18 18 18 19 20 21 21 20 19 19
37 35 35 34 31 28 27 26 25 23 22 22 23 24 23 22 21 21 21 21 20 19 20 19 18 18 17 18 18 17 17 18 18 19 19 20 21 21 21 20 19 19
37 36 36 35 32 29 27 26 25 24 23 24 25 25 25 24 23 22 21 21 20 20 19 19 18 18 18 18 18 18 18 18 19 19 20 21 22 22 21 20 18 18
38 37 37 35 32 29 28 26 25 25 25 26 26 26 26 25 24 22 21 21 21 20 20 19 19 19 19 19 19 18 19 19 19 20 22 23 24 23 20 18 17 17
39 38 37 35 32 30 29 27 26 26 27 27 27 27 27 26 25 23 22 21 21 21 21 20 19 19 20 20 19 19 19 20 20 21 22 24 24 22 18 17 17 17
39 39 37 35 33 31 30 29 28 28 29 29 28 28 27 28 27 24 22 22 22 21 21 21 20 21 21 20 20 20 20 21 22 21 21 22 23 20 17 17 17 17
40 39 37 35 34 33 32 32 30 29 29 30 29 29 29 29 27 24 22 22 22 22 22 22 22 22 21 20 20 20 20 21 21 20 19 20 21 20 18 18 18 18
40 39 37 36 35 34 34 33 32 30 30 30 30 30 30 29 26 23 22 23 23 23 23 23 23 23 22 22 21 20 20 20 20 19 18 19 20 20 20 20 20 19
40 39 38 37 36 35 34 33 33 32 32 33 33 32 31 30 27 25 23 23 23 23 23 23 23 23 23 23 22 21 20 19 19 19 18 18 19 20 20 21 21 20
41 40 39 37 37 36 34 32 33 34 34 34 35 34 32 31 28 24 22 22 23 23 24 24 23 23 24 25 24 22 20 19 19 19 18 18 19 20 20 22 21 21
42 41 40 39 38 36 33 31 32 34 35 36 36 34 32 30 27 23 22 23 24 24 24 24 23 23 25 26 24 20 19 18 18 18 19 19 19 20 20 21 22 24
42 42 42 40 37 34 32 30 28 30 33 36 35 32 30 28 25 23 23 24 24 24 24 24 24 24 26 25 22 19 17 17 18 19 20 20 20 20 21 21 22 24
40 41 40 39 35 33 31 28 28 31 35 33 28 27 28 26 25 26 26 25 23 23 22 23 23 24 23 21 19 18 18 18 19 21 21 21 21 22 22 21 21 22